Washington, PA

12:18 AM EST on December 16, 2019 (GMT -0500)
Washington County

Weather History for KAFJ - October, 2019

Change the Weather History Date:

Sunday, October 27, 2019

  Actual Average Record
Temperature  
Mean Temperature 54 °F -  
Max Temperature 63 °F 57 °F 75 °F (2000)
Min Temperature 45 °F 36 °F 26 °F (1999)
Degree Days  
Heating Degree Days 10    
Growing Degree Days 4 (Base 50)    
Moisture  
Dew Point 52 °F    
Average Humidity 82    
Maximum Humidity 100    
Minimum Humidity 63    
Precipitation  
Precipitation 0.44 in - - ()
Sea Level Pressure  
Sea Level Pressure 29.90 in    
Wind  
Wind Speed 10 mph ()    
Max Wind Speed 28 mph    
Max Gust Speed 38 mph    
Visibility 9.9 miles    
Events Rain    
Averages and records for this station are not official NWS values.
T = Trace of Precipitation, MM = Missing Value Source: Averaged Metar Reports

Daily Weather History Graph

Daily Weather History Graph

Search for Another Location

Airport or City:

Astronomy

Oct. 27, 2019 Rise Set
Actual Time 7:44 AM EDT 6:24 PM EDT
Civil Twilight 7:16 AM EDT 6:52 PM EDT
Nautical Twilight 6:44 AM EDT 7:24 PM EDT
Astronomical Twilight 6:13 AM EDT 7:56 PM EDT
Moon 6:51 AM EDT (10/27) 6:33 PM EDT (10/27)
Length of Visible Light 11h 36m
Length of Day
10h 40m
Waning Crescent, 0% of the Moon is Illuminated
Oct 27
Waning Crescent
Oct 27
New
Nov 4
First Quarter
Nov 12
Full
Nov 19
Last Quarter

Hourly Weather History & Observations

Time (EDT) Temp. Dew Point Humidity Pressure Visibility Wind Dir Wind Speed Gust Speed Precip Events Conditions
12:56 AM 55.9 °F 54.0 °F 93% 29.78 in 10.0 mi SE 12.7 mph 17.3 mph 0.03 in Rain Light Rain
1:56 AM 57.9 °F 55.0 °F 90% 29.74 in 10.0 mi SE 9.2 mph 20.7 mph 0.01 in   Overcast
2:56 AM 61.0 °F 55.9 °F 83% 29.70 in 10.0 mi SSE 12.7 mph 20.7 mph N/A   Mostly Cloudy
3:56 AM 62.1 °F 57.0 °F 84% 29.70 in 10.0 mi SSE 9.2 mph 19.6 mph 0.02 in   Overcast
4:46 AM 60.8 °F 59.0 °F 94% 29.75 in 10.0 mi WSW 11.5 mph - 0.16 in Rain Light Rain
4:56 AM 60.1 °F 59.0 °F 96% 29.77 in 10.0 mi West 11.5 mph - 0.20 in Rain Heavy Rain
5:35 AM 60.8 °F 60.8 °F 100% 29.77 in 7.0 mi South 6.9 mph - 0.16 in Rain Rain
5:56 AM 61.0 °F 60.1 °F 97% 29.74 in 10.0 mi South 8.1 mph - 0.18 in Rain Light Rain
6:56 AM 61.0 °F 59.0 °F 93% 29.75 in 10.0 mi South 8.1 mph - 0.00 in   Mostly Cloudy
7:13 AM 60.8 °F 59.0 °F 94% 29.76 in 10.0 mi SSW 9.2 mph - N/A   Scattered Clouds
7:56 AM 61.0 °F 57.9 °F 90% 29.76 in 10.0 mi SSW 13.8 mph - N/A   Scattered Clouds
8:45 AM 60.8 °F 57.2 °F 88% 29.80 in 10.0 mi WSW 15.0 mph 20.7 mph N/A   Mostly Cloudy
8:56 AM 61.0 °F 57.0 °F 87% 29.80 in 10.0 mi SW 10.4 mph 20.7 mph N/A   Overcast
9:56 AM 62.1 °F 55.0 °F 78% 29.82 in 10.0 mi SW 13.8 mph 28.8 mph N/A   Overcast
10:56 AM 61.0 °F 52.0 °F 72% 29.85 in 10.0 mi WSW 12.7 mph 24.2 mph N/A   Overcast
11:04 AM 60.8 °F 53.6 °F 77% 29.86 in 10.0 mi WSW 11.5 mph 21.9 mph N/A   Overcast
11:56 AM 61.0 °F 52.0 °F 72% 29.88 in 10.0 mi SW 15.0 mph 23.0 mph N/A   Overcast
12:40 PM 62.6 °F 51.8 °F 68% 29.89 in 10.0 mi WSW 20.7 mph 27.6 mph N/A   Overcast
12:56 PM 61.0 °F 50.0 °F 67% 29.90 in 10.0 mi West 27.6 mph 38.0 mph N/A   Overcast
1:56 PM 63.0 °F 50.0 °F 63% 29.90 in 10.0 mi West 23.0 mph 31.1 mph N/A   Overcast
2:56 PM 63.0 °F 50.0 °F 63% 29.93 in 10.0 mi WSW 16.1 mph 25.3 mph N/A   Overcast
3:56 PM 63.0 °F 50.0 °F 63% 29.95 in 10.0 mi WSW 16.1 mph 28.8 mph N/A   Mostly Cloudy
4:56 PM 61.0 °F 48.9 °F 64% 29.98 in 10.0 mi WSW 16.1 mph 24.2 mph N/A   Mostly Cloudy
5:56 PM 59.0 °F 48.9 °F 69% 30.01 in 10.0 mi WSW 13.8 mph - N/A   Partly Cloudy
6:56 PM 55.9 °F 48.0 °F 75% 30.03 in 10.0 mi WSW 6.9 mph - N/A   Scattered Clouds
7:56 PM 54.0 °F 48.0 °F 80% 30.06 in 10.0 mi WSW 4.6 mph - N/A   Clear
8:20 PM 53.6 °F 48.2 °F 82% 30.07 in 10.0 mi SW 4.6 mph - N/A   Mostly Cloudy
8:48 PM 53.6 °F 48.2 °F 82% 30.07 in 10.0 mi WSW 4.6 mph - N/A   Scattered Clouds
8:56 PM 53.1 °F 48.0 °F 83% 30.07 in 10.0 mi Calm Calm - N/A   Mostly Cloudy
9:18 PM 50.0 °F 46.4 °F 87% 30.08 in 10.0 mi Calm Calm - N/A   Scattered Clouds
9:31 PM 50.0 °F 46.4 °F 87% 30.08 in 10.0 mi Calm Calm - N/A   Mostly Cloudy
9:56 PM 50.0 °F 46.9 °F 89% 30.09 in 10.0 mi Calm Calm - N/A   Overcast
10:56 PM 46.9 °F 45.0 °F 93% 30.12 in 10.0 mi SW 3.5 mph - N/A   Clear
11:56 PM 45.0 °F 44.1 °F 97% 30.12 in 10.0 mi Calm Calm - N/A   Clear